#timestamp,LO_Frequency,Hit,StdDev 
1673607615.2,286047000.3,N
1673607635.0,286047000.0,N
1673607636.0,286047011.9,Y
1673607655.8,286047001.2,P
1673607675.6,286046998.8,N
1673607695.5,286047001.1,N
1673607715.3,286047000.8,N
1673607735.1,286046998.5,N
1673607755.9,286046998.3,N
1673607775.7,286047000.7,N
1673607795.6,286047000.0,N
1673607815.4,286046999.6,N
1673607835.2,286046999.2,N
1673607855.1,286046995.6,Y
1673607856.0,286046995.6,P
1673607875.8,286046996.4,N
1673607895.6,286046995.6,N
1673607915.5,286046995.4,N
1673607935.3,286046994.9,Y
1673607955.2,286047000.2,P
1673607975.9,286047001.3,N
1673607995.7,286047003.7,N
1673608015.6,286047003.1,N
1673608035.4,286047003.4,N
1673608055.2,286047003.2,N
1673608075.1,286047005.9,N
1673608076.0,286047005.9,N
1673608095.8,286047005.7,N
1673608115.7,286047005.4,N
1673608135.5,286047003.1,N
1673608155.3,286047005.7,N
1673608175.2,286047003.5,N
1673608195.0,286047001.7,N
1673608195.9,286047001.7,N
1673608215.8,286047001.6,N
1673608235.6,286047004.0,N
1673608255.4,286047001.0,N
1673608275.3,286047000.1,N
1673608295.1,286047002.8,N
1673608315.9,286047001.6,N
1673608335.7,286047004.2,N
1673608355.5,286047004.4,N
1673608375.4,286047004.1,N
1673608395.2,286047003.9,N
1673608415.1,286047003.9,N
1673608416.0,286047003.9,N
1673608435.8,286047003.7,N
1673608455.6,286047004.6,N
1673608475.5,286047007.5,Y
1673608495.3,286047004.3,P
1673608515.2,286047002.1,P
1673608535.9,286047001.0,N
1673608555.7,286047000.2,N
1673608575.6,286047002.5,N
1673608595.4,286047001.7,N
1673608615.2,286047002.9,N
1673608635.1,286047003.3,N
1673608636.0,286047003.3,N
1673608655.8,286047003.7,Y
1673608675.7,286047001.0,P
1673608695.5,286047000.1,N
1673608715.4,286047001.6,N
1673608735.2,286047001.8,N
1673608755.0,286047000.3,N
1673608755.9,286047000.3,N
1673608775.8,286046999.2,N
1673608795.6,286046996.6,Y
1673608815.4,286046997.4,P
1673608835.3,286046997.4,N
1673608855.1,286046997.4,N
1673608875.9,286046999.1,N
1673608895.7,286046998.6,N
1673608915.5,286046999.2,N
1673608935.4,286046998.8,N
1673608955.2,286047001.0,N
1673608975.0,286047001.2,N
1673608975.9,286047001.2,N
1673608995.8,286046999.4,N
1673609015.6,286047000.4,N
1673609035.5,286046998.1,N
1673609055.3,286047001.1,N
1673609075.1,286046999.4,N
1673609095.9,286046999.4,N
1673609115.7,286046997.3,N
1673609135.5,286046996.8,N
1673609155.4,286046996.5,N
1673609175.2,286046999.3,N
1673609195.1,286047000.0,N
1673609196.0,286047000.0,N
1673609215.8,286047000.3,N
1673609235.6,286047002.3,N
1673609255.5,286047000.1,N
1673609275.3,286046999.8,N
1673609295.2,286046999.2,N
1673609315.9,286046995.3,Y
1673609335.7,286046999.1,P
1673609355.6,286047001.0,P
1673609375.4,286047002.2,N
1673609395.2,286047000.1,N
1673609415.1,286047000.2,N
1673609416.0,286047000.2,N
1673609435.8,286046999.7,N
1673609455.7,286047001.9,N
1673609475.5,286047002.2,N
1673609495.3,286047002.4,N
1673609515.2,286047001.6,N
1673609535.0,286047002.7,N
1673609535.9,286047002.7,N
1673609555.8,286047003.6,N
1673609575.6,286047002.7,N
1673609595.4,286047000.1,N
1673609615.3,286046999.9,N
1673609635.1,286046999.5,N
1673609655.8,286046997.1,N
1673609675.7,286046999.0,N
1673609695.5,286046998.9,N
1673609715.4,286046998.9,N
1673609735.2,286047000.7,N
1673609755.0,286046999.0,N
1673609755.9,286046999.0,N
1673609775.8,286046998.8,N
1673609795.6,286046999.3,N
1673609815.5,286046998.8,N
1673609835.3,286046999.2,N
1673609855.1,286046995.4,N
1673609875.9,286046999.5,N
1673609895.7,286046998.5,N
1673609915.5,286046999.4,N
1673609935.4,286047001.1,N
1673609955.2,286047000.4,N
1673609975.1,286047002.7,N
1673609976.0,286047002.7,N
1673609995.8,286047001.4,N
1673610015.6,286047000.8,N
1673610035.5,286047000.6,N
1673610055.3,286046998.2,N
1673610075.1,286046998.5,N
1673610095.9,286047001.2,N
1673610115.7,286046999.0,N
1673610135.6,286046998.3,N
1673610155.4,286046999.9,N
1673610175.2,286047000.2,N
1673610195.1,286046998.2,N
1673610196.0,286046998.2,N
1673610215.8,286046998.2,N
1673610235.6,286047000.3,N
1673610255.5,286047000.9,N
1673610275.3,286047002.4,N
1673610295.2,286047002.4,N
1673610315.9,286047002.6,N
1673610335.7,286047002.6,N
1673610355.6,286047001.9,N
1673610375.4,286047002.6,N
1673610395.2,286047002.8,N
1673610415.1,286047000.8,N
1673610416.0,286047000.8,N
1673610435.8,286047000.2,N
1673610455.7,286047002.4,N
1673610475.5,286047002.2,N
1673610495.3,286047001.0,N
1673610515.2,286047001.4,N
1673610535.0,286046999.9,N
1673610535.9,286046999.9,N
1673610555.8,286046999.8,N
1673610575.6,286046999.4,N
1673610595.4,286046999.0,N
1673610615.3,286046999.4,N
1673610635.1,286046998.2,N
1673610655.8,286046998.2,N
1673610675.7,286046999.1,N
1673610695.5,286046996.9,N
1673610715.4,286046999.3,N
1673610735.2,286046999.5,N
1673610755.0,286046998.4,N
1673610755.9,286046998.4,N
1673610775.8,286046999.0,N
1673610795.6,286047001.2,N
1673610815.4,286047001.1,N
1673610835.3,286047000.5,N
1673610855.1,286047001.9,N
1673610875.9,286047001.4,N
1673610895.7,286047001.3,N
1673610915.5,286047001.8,N
1673610935.4,286047001.5,N
1673610955.2,286047001.9,N
1673610975.1,286047000.5,N
1673610976.0,286047000.5,N
1673610995.8,286046999.9,N
1673611015.6,286047002.0,N
1673611035.5,286047000.2,N
1673611055.3,286047001.5,N
1673611075.2,286047002.2,N
1673611095.9,286047000.7,N
1673611115.7,286047000.5,N
1673611135.6,286047000.1,N
1673611155.4,286046998.4,N
1673611175.2,286047001.0,N
1673611195.1,286047000.1,N
1673611196.0,286047000.1,N
